Regional Weather Roundup
Issued by NWS Burlington, VT

Home | Current Version | Previous Version | Text Only | Print | Product List | Glossary On
Versions: 1 2 3 4 5 6 7 8 9 10 11 12 13 14 15 16 17 18 19 20 21 22 23 24 25 26 27
000
ASUS41 KBTV 241210
RWRBTV
VERMONT REGIONAL WEATHER ROUNDUP
NATIONAL WEATHER SERVICE BURLINGTON VT
800 AM EDT FRI OCT 24 2014

NOTE: "FAIR" INDICATES FEW OR NO CLOUDS BELOW 12,000 FEET WITH NO
SIGNIFICANT WEATHER AND/OR OBSTRUCTIONS TO VISIBILITY.

* THESE REPORTS ARE NOT UNDER NWS QUALITY CONTROL AND/OR DO NOT
  REPORT WEATHER SUCH AS PRECIPITATION AND FOG.

VTZ001>019-241300-
_____VERMONT_____


CITY           SKY/WX    TMP DP  RH WIND       PRES   REMARKS
BURLINGTON     CLOUDY    42  40  92 N8        29.87R FOG
6HR MIN TEMP:  42; 6HR MAX TEMP:  44; 6HR PCP:  0.10;

MONTPELIER     CLOUDY    40  38  93 NW8       29.83R
6HR MIN TEMP:  40; 6HR MAX TEMP:  43; 6HR PCP:  0.09;

MORRISVILLE    CLOUDY    41  38  89 N7        29.84R
6HR MIN TEMP:  41; 6HR MAX TEMP:  44; 6HR PCP:  0.07;

ST. JOHNSBURY*   N/A     43  42  97 MISG      29.77R
6HR MIN TEMP:  43; 6HR MAX TEMP:  45; 6HR PCP:  0.05;

LYNDONVILLE*   CLOUDY    42  39  89 W7        29.79S
6HR MIN TEMP:  42; 6HR MAX TEMP:  44;

MIDDLEBURY*    LGT RAIN  41  41 100 N6        29.84R
6HR MIN TEMP:  41; 6HR MAX TEMP:  43; 6HR PCP:  0.12;

RUTLAND*       CLOUDY    41  39  93 NW8G16    29.81S
6HR MIN TEMP:  41; 6HR MAX TEMP:  41;

SPRINGFIELD    CLOUDY    44  40  85 W7        29.78R
6HR MIN TEMP:  43; 6HR MAX TEMP:  47; 6HR PCP:  0.05;

HIGHGATE*      CLOUDY    41  39  92 N8        29.87R
6HR MIN TEMP:  40; 6HR MAX TEMP:  41;

NEWPORT*       CLOUDY    41  40  97 N10       29.82R FOG
6HR MIN TEMP:  41; 6HR MAX TEMP:  42;

BENNINGTON     CLOUDY    43  40  89 W5        29.81F
6HR MIN TEMP:  43; 6HR MAX TEMP:  44; 6HR PCP:  0.22;

SUTTON*          N/A     39 N/A N/A MISG        N/A

_____LAKE CHAMPLAIN_____


CITY           SKY/WX    TMP DP  RH WIND       PRES   REMARKS
COLCHESTER RF*   N/A     45  41  87 N23         N/A
DIAMOND ISL*     N/A     43  41  93 NW20        N/A

$$

NYZ007-026>031-035-052-083-241300-
_____NORTHERN NEW YORK_____


CITY           SKY/WX    TMP DP  RH WIND       PRES   REMARKS
PLATTSBURGH    CLOUDY    43  41  93 N13       29.88R
6HR MIN TEMP:  42; 6HR MAX TEMP:  44; 6HR PCP:  0.06;

SARANAC LAKE   CLOUDY    40  38  93 VRB7      29.86S
6HR MIN TEMP:  39; 6HR MAX TEMP:  40; 6HR PCP:  0.07;

MASSENA        CLOUDY    46  43  89 CALM      29.94S
6HR MIN TEMP:  45; 6HR MAX TEMP:  46;

OGDENSBURG*    MOSUNNY   45  45 100 CALM      29.93S
POTSDAM*       CLOUDY    45  45 100 CALM      29.93S
WATERTOWN      PTSUNNY   44  39  82 CALM      29.94S
6HR MIN TEMP:  44; 6HR MAX TEMP:  48;

FT DRUM        CLOUDY    44  44  99 CALM      29.92S
6HR MIN TEMP:  44; 6HR MAX TEMP:  44;

ALBANY         LGT RAIN  46  43  89 N6        29.85R FOG
6HR MIN TEMP:  45; 6HR MAX TEMP:  47; 6HR PCP:  0.14;

GLENS FALLS    CLOUDY    44  43  96 CALM      29.84S FOG
6HR MIN TEMP:  44; 6HR MAX TEMP:  46; 6HR PCP:  0.10;


$$
NHZ002-005-011-241300-
_____NEW HAMPSHIRE_____


CITY           SKY/WX    TMP DP  RH WIND       PRES   REMARKS
LEBANON        CLOUDY    46  41  82 N7        29.77R
6HR MIN TEMP:  46; 6HR MAX TEMP:  47; 6HR PCP:  0.06;

KEENE          CLOUDY    45  36  70 N6        29.76S
6HR MIN TEMP:  45; 6HR MAX TEMP:  48; 6HR PCP:  0.03;

PLYMOUTH       CLOUDY    46  46  99 W6        29.73R
6HR MIN TEMP:  46; 6HR MAX TEMP:  48; 6HR PCP:  0.02;

WHITEFIELD     LGT RAIN  44  41  89 N5        29.76R
6HR MIN TEMP:  44; 6HR MAX TEMP:  46; 6HR PCP:  0.05;


$$

_____REGIONAL QUEBEC LOCATIONS_____


CITY           SKY/WX    TMP DP  RH WIND       PRES   REMARKS
MONTREAL       LGT RAIN  45  43  93 NW6       29.91S
QUEBEC CITY    PTSUNNY   45  34  65 E9        29.90R
SHERBROOKE     LGT RAIN  41  41 100 NE6       29.82R

_____REGIONAL ONTARIO LOCATIONS_____


CITY           SKY/WX    TMP DP  RH WIND       PRES   REMARKS
OTTAWA         PTSUNNY   45  41  87 W3        29.93F

______KEY______
VSB  - VISIBILITY IN MILES
WCI  - WIND CHILL INDEX
HX   - HEAT INDEX
$$
NNNN



USA.gov is the U.S. government's official web portal to all federal, state and local government web resources and services.